750  
ASUS45 KTFX 210810  
RWRMT  
MONTANA REGIONAL WEATHER ROUNDUP  
NATIONAL WEATHER SERVICE GREAT FALLS MT  
200 AM MDT SUN JUL 21 2019  
 
NOTE: "FAIR" INDICATES FEW OR NO CLOUDS BELOW 12,000 FEET WITH NO  
SIGNIFICANT WEATHER AND/OR S TO VISIBILITY
.  
 
MTZ001>007-043-210900-  
WEST OF THE DIVIDE  
 
CITY SKY/WX TMP DP RH WIND PRES REMARKS
 
KALISPELL FAIR 49 42 77 CALM 30.19F  
MISSOULA FAIR 52 36 54 NW8 30.18R  
BUTTE FAIR 47 32 56 S3 30.25S  
ANACONDA N/A 43 32 65 SW6 30.22S  
DEER LODGE N/A 48 36 61 CALM 30.24R  
HAMILTON CLEAR 43 37 81 SE7 30.19R  
MULLAN PASS FAIR 48 33 56 SE7 30.25S  
PLAINS N/A 49 40 71 CALM 30.18S  
RONAN N/A 48 41 76 NE5 30.19R  
THOMPSON FALLS N/A 48 44 86 CALM 30.21S  

 
 
MTZ008-052>055-210900-  
SOUTHWEST MONTANA  
 
CITY SKY/WX TMP DP RH WIND PRES REMARKS
 
BOZEMAN FAIR 47 40 76 SE6 30.19R  
DILLON FAIR 49 36 61 E10 30.20R  
ENNIS CLEAR 52 36 54 VRB5 30.25R  
THREE FORKS N/A 55 42 61 CALM 30.17R  
TWIN BRIDGES N/A 59 32 36 N13 30.15R  
W YELLOWSTONE FAIR 48 39 71 CALM 30.22R  

 
 
MTZ009-010-012-014-046-048-049-054-210900-  
EAST SLOPES AND CENTRAL MONTANA  
 
CITY SKY/WX TMP DP RH WIND PRES REMARKS
 
CUT BANK FAIR 42 39 89 W3 30.23R  
GREAT FALLS FAIR 45 44 97 NW5 30.23S  
HELENA FAIR 55 43 63 W7 30.21R  
MALMSTROM AFB FAIR 47 43 87 SW6 30.24S  
BOWMANS CORNER FAIR 46 42 83 CALM 30.23S  
CHOTEAU N/A 45 43 93 CALM 30.24S  
FAIRFIELD FAIR 44 42 93 CALM 30.23S  
POWER FAIR 40 39 96 W3 30.23S  
RAYNESFORD FAIR 46 39 77 E3 30.24S  
ULM FAIR 46 40 78 CALM 30.24R  
WHITE SULPHUR N/A 45 39 81 CALM 30.23R  

 
 
MTZ011-013-016-021-045-047-050-051-210900-  
NORTH CENTRAL MONTANA  
 
CITY SKY/WX TMP DP RH WIND PRES REMARKS
 
HAVRE FAIR 49 49 100 W5 30.19R  
LEWISTOWN CLOUDY 52 47 83 SW6 30.24R  
CHINOOK N/A 52 52 100 NW5 30.18S  
DENTON FAIR 50 47 90 W10 30.18F  
FORT BENTON N/A 52 46 82 N6 30.23R  
GEYSER FAIR 51 42 71 S14 30.23S  
GRASS RANGE MOCLDY 54 47 75 W13 30.18R  
JUDITH GAP CLOUDY 51 44 77 N16 30.23S  
N BAR RANCH CLOUDY 54 45 71 NW13 30.23S  
STANFORD FAIR 46 42 87 CALM 30.25S  
WINIFRED FAIR 51 47 89 SW7 30.20S  

 
 
MTZ017>020-022>027-061-062-210900-  
NORTHEAST MONTANA  
 
CITY SKY/WX TMP DP RH WIND PRES REMARKS
 
GLASGOW MOCLDY 61 52 72 N13 30.14R  
CULBERTSON N/A 46 45 93 N5 30.10R  
GLENDIVE FAIR 59 48 67 N7 30.11S  
JORDAN N/A 62 42 47 W6 30.11S  
MALTA MOCLDY 55 54 94 CALM 30.14F  
POPLAR N/A 55 52 88 NE6 30.11S  
SIDNEY FAIR 58 50 75 NW3 30.11R  
WOLF POINT MOCLDY 57 51 80 E3 30.11S  

 
 
MTZ028>42-056>058-210900-  
SOUTHCENTRAL AND SOUTHEAST MONTANA  
 
CITY SKY/WX TMP DP RH WIND PRES REMARKS
 
BAKER FAIR 59 47 64 E6 30.10S  
BIG TIMBER PTCLDY 55 41 58 N10G18 30.21R  
BILLINGS MOCLDY 68 42 38 N9 30.11R  
FORSYTH N/A 63 46 55 CALM 30.06S  
HARLOWTON MOCLDY 54 44 68 N22 30.18R  
LAUREL N/A 64 43 45 N9 30.11R  
LIVINGSTON FAIR 51 41 68 W5 30.20R  
MILES CITY FAIR 61 45 55 NE8 30.07R  

 
 
REGIONAL REPORTS...DAKOTAS/MN  
 
CITY SKY/WX TMP DP RH WIND PRES REMARKS
 
WILLISTON FAIR 55 51 86 N3 30.11S  
MINOT FAIR 57 53 86 CALM 30.11R  
DICKINSON FAIR 55 47 74 E7 30.10S  
BEACH FAIR 54 48 82 CALM 30.13S  
CROSBY FAIR 48 48 100 CALM 30.12S FOG  
HETTINGER CLOUDY 58 50 75 E7 30.10F  
TIOGA FAIR 48 48 100 CALM 30.14S  
WATFORD CITY N/A N/A N/A N/A MISG N/A  
BISMARCK FAIR 57 53 86 CALM 30.11R  
GRAND FORKS FAIR 56 53 90 NW7 30.06S  
FARGO FAIR 59 56 89 N6 30.04S  
BUFFALO SD N/A 63 50 62 E8 30.05F  
RAPID CITY MOCLDY 61 58 90 CALM 30.07F  
INTL FALLS FAIR 60 57 89 CALM 30.05R  
DULUTH FAIR 60 51 72 NW5 30.02R  
MINNEAPOLIS FAIR 63 60 90 CALM 30.00F  

 
 
REGIONAL REPORTS...WY/ID/WA  
 
CITY SKY/WX TMP DP RH WIND PRES REMARKS
 
BUFFALO WY MOCLDY 62 56 80 W5 30.09F  
CODY FAIR 59 42 53 CALM 30.15R  
GILLETTE FAIR 64 59 83 S18G28 30.04F  
POWELL FAIR 57 37 47 NW15 30.12  
SHERIDAN FAIR 60 54 80 N5 30.05F  
YELLOWSTONE LA N/A 42 35 76 CALM 30.30R  
BOISE FAIR 64 38 38 CALM 29.98R  
COUER D'ALENE FAIR 58 43 57 N14 30.13S  
IDAHO FALLS FAIR 56 45 66 SW5 30.07R  
SALMON FAIR 56 34 43 E6 30.13R  
SPOKANE FAIR 64 41 42 E8 30.12R  
SEATTLE FAIR 63 50 62 N7 30.00S  

 
 
REGIONAL REPORTS...ALBERTA  
 
CITY SKY/WX TMP DP RH WIND PRES REMARKS
 
CALGARY PTCLDY 50 48 93 CALM 30.22R  
CROWSNEST PASS N/A 43 43 100 S1 N/A  
EDMONTON CLEAR 59 57 94 SW5 30.15R  
FORT MCMURRAY MOCLDY 59 48 67 E6 30.09R  
HIGH LEVEL PTCLDY 57 54 88 S2 30.00R FOG  
LETHBRIDGE MOCLDY 48 46 93 W9 30.21R  
LLOYDMINSTER CLEAR 50 48 93 CALM 30.16S  
MEDICINE HAT CLEAR 50 50 100 S23G59 30.16R  
MILK RIVER N/A 39 37 93 W2 N/A  
PEACE RIVER PTCLDY 55 54 94 NW2 30.09R  
PINCHER CREEK PTCLDY 43 41 93 NW5 30.25R  
RAYMOND N/A 43 43 100 W7 N/A  
FORT SMITH NWT MOCLDY 59 43 55 SE8 30.00R  

 
 
REGIONAL REPORTS...SASKATCHEWAN  
 
CITY SKY/WX TMP DP RH WIND PRES REMARKS
 
ASSINIBOIA N/A 57 54 88 E1 N/A  
CORONACH N/A 52 50 93 W2 N/A  
CYPRESS HILLS N/A 46 45 93 N6 N/A  
ESTEVAN CLEAR 52 50 93 E6 30.12S  
LA RONGE N/A 50 43 76 SW3 N/A  
MOOSE JAW N/A 52 50 93 S6 N/A  
PRINCE ALBERT MOCLDY 55 55 100 VRB2 30.18R  
REGINA MOCLDY 59 54 82 E7 30.14S  
ROCKGLEN N/A 54 50 87 SW3 N/A  
SASKATOON MOCLDY 59 57 94 E5 30.18R  
SWIFT CURRENT PTCLDY 52 50 93 E3 30.14S  
URANIUM CITY N/A 52 46 82 NE2 N/A  
VAL MARIE N/A 54 50 87 S7 N/A  

 
 
 
CLICK HERE TO GO TO PREVIOUS BULLETINS.

The Nexlab MT Page Main Text Page